{"data":{"norad_id":58594,"intl_designator":"2023-200F","name":"STARLINK-31075","alt_names":[],"object_type":"PAYLOAD","status":"ACTIVE","operator":null,"country":"US","launch_date":"2023-12-19","launch_site_code":"AFETR","launch_vehicle":null,"mission":null,"orbit_class":"UNKNOWN","rcs_meters":null,"size_class":null,"mass_kg":null,"dimensions":null,"purposes":["comms"],"wikipedia_slug":null,"has_3d_model":false,"image_url":null,"decayed_at":null,"tle_current":{"epoch":"2026-05-24T22:04:54.761664Z","epoch_age_seconds":75890,"freshness":"FRESH","line1":"1 58594U 23200F   26144.92007826  .00000909  00000+0  42547-4 0  9992","line2":"2 58594  43.0042  97.9664 0001244 287.2065  72.8651 15.27580844135279","mean_motion":15.27580844,"eccentricity":0.0001244,"inclination_deg":43.0042,"raan_deg":97.9664,"arg_perigee_deg":287.2065,"mean_anomaly_deg":72.8651,"bstar":4.2547e-5,"rev_number":13527,"period_min":94.266696630558,"perigee_km":482.19303756523,"apogee_km":483.90010003715,"semimajor_km":6861.1835688012,"source":"CELESTRAK","updated_at":"2026-05-25T13:38:18.665961Z"}}}